Flag for U.S.A. Weather past 2 weeks in Alpena, Michigan, U.S.A.

Now
55 °F

Passing clouds.


Feels Like: 55 °F
Forecast: 48 / 64 °F
Wind: No wind

Location: Alpena County Regional Airport

Current Time: May 28, 2015 at 5:03:54 AM

Latest Report: May 28, 2015 at 3:54 AM


Visibility: 10 mi

Pressure: 30.12 "Hg

Humidity: 90%

Dew point: 52 °F

Location of AlpenaLocation

Historic Weather in Alpena — Graph

°F

Alpena temperature yesterday

Maximum temperature yesterday: 76 °F (at 1:54 PM)
Minimum temperature yesterday: 59 °F (at 11:54 PM)
Average temperature yesterday: 68 °F

Past Weeks' High & Low Weather Summary

 TemperatureHumidityPressure
High85 °F (May 18, 3:54 PM)97% (May 16, 9:54 PM)30.48 "Hg (May 16, 9:54 PM)
Low28 °F (May 23, 5:54 AM)18% (May 23, 4:54 PM)29.74 "Hg (May 27, 2:54 AM)
Average57 °F65%30.07 "Hg
* Reported May 13 3:04 AM — May 28 3:54 AM, Alpena, Weather by CustomWeather, © 2015

Note: Actual official high and low records may vary slightly from our data, if they occured in-between our weather recording intervals... More about our weather records

Advertising

Alpena weather history for previous 24 hours

 ConditionsComfort  
Time TempWeatherWind HumidityBarometerVisibility
3:54 AM
Thu, May 28
55 °FPassing clouds.No wind90%30.12 "Hg10 mi
2:54 AM50 °FClear.3 mph93%30.09 "Hg10 mi
1:54 AM53 °FClear.No wind89%30.09 "Hg10 mi
12:54 AM57 °FClear.3 mph87%30.08 "Hg10 mi
11:54 PM
Wed, May 27
59 °FPassing clouds.No wind84%30.06 "Hg10 mi
10:54 PM61 °FPassing clouds.6 mph75%30.05 "Hg10 mi
9:54 PM63 °FPartly sunny.7 mph68%30.03 "Hg10 mi
8:54 PM63 °FPartly sunny.8 mph70%29.99 "Hg10 mi
7:54 PM64 °FMore clouds than sun.7 mph68%29.96 "Hg10 mi
6:54 PM65 °FLight rain. Mostly cloudy.14 mph70%29.93 "Hg10 mi
5:54 PM67 °FMore clouds than sun.12 mph66%29.90 "Hg10 mi
4:54 PM69 °FCloudy.13 mph63%29.86 "Hg10 mi
3:54 PM69 °FLight rain. Cloudy.14 mph66%29.85 "Hg10 mi
2:54 PM75 °FScattered clouds.16 mph50%29.81 "Hg10 mi
1:54 PM76 °FScattered clouds.17 mph52%29.80 "Hg10 mi
12:54 PM74 °FOvercast.18 mph53%29.79 "Hg10 mi
11:54 AM75 °FScattered clouds.18 mph52%29.79 "Hg10 mi
10:54 AM73 °FPartly sunny.17 mph57%29.77 "Hg10 mi
9:54 AM73 °FScattered clouds.17 mph59%29.78 "Hg10 mi
8:54 AM71 °FSunny.15 mph68%29.76 "Hg10 mi
7:54 AM67 °FPassing clouds.14 mph81%29.76 "Hg10 mi
6:54 AM65 °FSunny.12 mph85%29.76 "Hg10 mi
5:54 AM64 °FClear.8 mph84%29.76 "Hg10 mi
Weather by CustomWeather, © 2015

See weather overviewHow to use our weather pages